Location: Moscow
(55.7500°N, 37.5830°E)
Time: 16:56:02
(UTC+03:00)

A-11 Canister half - Pass Details

Date: 01 December 2021
Orbit: 1516 x 1684 km, 47.2° (Epoch: 19 January)

Event Time Altitude Azimuth Distance (km) Brightness Sun altitude
Rises 09:25:15 0° 234° (SW) 4,806 11.6 4.1°
Reaches altitude 10° 09:28:28 10° 229° (SW) 3,844 11.2 4.4°
Maximum altitude 09:37:38 46° 161° (SSE) 2,124 10.6 5.2°
Drops below altitude 10° 09:47:02 10° 93° (E) 3,944 11.8 6.0°
Sets 09:50:22 0° 87° (E) 4,939 12.1 6.3°
